Location: Newark
(40.3500°N, 15.2333°E)
Time: 01:14:12
(UTC+00:00)

NOAA 19 - Pass Details

Date: 27 February 2020
Orbit: 841 x 860 km, 99.2° (Epoch: 28 March)

Event Time Altitude Azimuth Distance (km) Brightness Sun altitude
Rises 17:31:23 0° 216° (SW) 3,384 9.0 -9.1°
Reaches altitude 10° 17:35:12 10° 243° (WSW) 2,456 8.8 -9.8°
Maximum altitude 17:37:35 13° 270° (W) 2,255 8.9 -10.3°
Drops below altitude 10° 17:40:00 10° 296° (WNW) 2,464 8.7 -10.7°
Sets 17:43:53 0° 324° (NW) 3,408 8.9 -11.5°
